�N����,����,�~����,�C��,���x,�C��,����,���ϕ���,�ő�u�ԕ���,�ő厞����,���˗�,�I�_���x,�n�����x,�ő啗���N��,DTYPE
"16/06/21","00:10",0.0,22.8,89.2,1001.5,299.5,0.8,1.6,315.6,0.00,21.0,23.9,"00:01:52",1
"16/06/21","00:20",0.0,22.7,89.2,1001.5,283.3,0.8,1.1,313.2,0.00,20.9,23.7,"00:10:16",1
"16/06/21","00:30",0.0,22.7,89.2,1001.7,294.7,1.0,1.4,321.2,0.00,20.9,23.7,"00:27:44",1
"16/06/21","00:40",0.0,22.7,89.5,1001.7,301.1,1.1,1.4,314.3,0.00,20.9,23.8,"00:37:36",1
"16/06/21","00:50",0.0,22.7,89.8,1001.9,303.0,1.2,1.4,302.9,0.00,21.0,23.7,"00:40:16",1
"16/06/21","01:00",0.0,22.7,90.1,1001.9,297.8,1.1,1.7,326.2,0.00,21.0,23.7,"00:53:20",1
"16/06/21","01:10",0.0,22.7,90.4,1001.9,304.6,1.0,1.6,328.1,0.00,21.1,23.9,"01:05:36",1
"16/06/21","01:20",0.0,22.6,90.7,1001.5,297.0,0.8,1.1,309.1,0.00,21.0,23.8,"01:10:32",1
"16/06/21","01:30",0.0,22.6,91.0,1001.7,294.7,1.0,1.2,318.7,0.00,21.1,23.8,"01:29:36",1
"16/06/21","01:40",0.4,22.5,91.5,1001.7,307.8,1.0,1.8,315.7,0.00,21.1,23.7,"01:36:48",1
"16/06/21","01:50",0.2,22.4,91.9,1001.9,288.3,0.7,0.9,291.4,0.00,21.1,23.6,"01:40:48",1
"16/06/21","02:00",0.4,22.4,92.4,1001.7,333.0,0.6,0.9,351.9,0.00,21.1,23.6,"01:57:28",1
"16/06/21","02:10",0.6,22.4,92.8,1001.9,328.1,0.5,1.1,6.7,0.00,21.2,23.7,"02:02:40",1
"16/06/21","02:20",0.4,22.4,93.1,1001.9,320.3,0.6,1.2,336.9,0.00,21.3,23.6,"02:14:48",1
"16/06/21","02:30",0.4,22.4,93.3,1001.5,308.5,0.3,0.8,340.4,0.00,21.3,23.6,"02:20:32",1
"16/06/21","02:40",0.4,22.4,93.6,1001.5,308.0,0.5,0.6,345.5,0.00,21.4,23.5,"02:30:56",1
"16/06/21","02:50",0.4,22.4,93.6,1001.5,293.8,0.3,0.6,282.6,0.00,21.4,23.4,"02:40:08",1
"16/06/21","03:00",0.2,22.3,93.9,1001.7,275.8,0.3,0.9,319.7,0.00,21.3,23.4,"02:58:48",1
"16/06/21","03:10",0.2,22.4,94.1,1001.7,346.2,0.6,1.0,333.9,0.00,21.4,23.4,"03:00:02",1
"16/06/21","03:20",0.4,22.4,94.2,1001.7,335.4,0.6,1.2,335.3,0.00,21.5,23.5,"03:10:08",1
"16/06/21","03:30",0.4,22.3,94.3,1001.5,311.5,0.3,1.2,349.9,0.00,21.4,23.4,"03:21:12",1
"16/06/21","03:40",0.6,22.3,94.4,1001.2,296.4,0.2,0.8,331.5,0.00,21.4,23.4,"03:35:04",1
"16/06/21","03:50",0.6,22.2,94.5,1001.2,306.7,0.2,0.6,315.5,0.00,21.3,23.2,"03:40:32",1
"16/06/21","04:00",0.8,22.2,94.6,1001.0,298.9,0.3,0.6,309.6,0.00,21.3,23.3,"03:57:36",1
"16/06/21","04:10",1.2,22.2,94.7,1001.2,299.6,0.2,0.5,349.5,0.00,21.3,23.3,"04:01:12",1
"16/06/21","04:20",1.0,22.1,94.8,1001.0,247.0,0.2,0.6,228.3,0.00,21.3,23.3,"04:15:36",1
"16/06/21","04:30",0.8,22.1,94.8,1000.5,51.6,0.1,0.5,319.8,0.00,21.3,23.1,"04:20:32",1
"16/06/21","04:40",0.6,22.1,94.9,1001.0,240.3,0.7,2.1,208.7,0.00,21.3,23.2,"04:36:10",1
"16/06/21","04:50",0.8,22.0,94.9,1000.5,314.2,0.6,2.0,129.9,0.00,21.2,23.2,"04:49:36",1
"16/06/21","05:00",1.0,21.9,94.8,1000.8,109.8,0.2,1.1,126.4,0.00,21.1,23.3,"04:59:04",1
"16/06/21","05:10",1.2,21.9,94.8,1000.0,114.8,0.3,1.1,129.1,0.00,21.1,23.3,"05:09:12",1
"16/06/21","05:20",1.4,21.8,94.9,1000.3,164.5,0.6,1.7,162.6,0.00,21.0,23.1,"05:14:00",1
"16/06/21","05:30",1.6,21.6,94.8,1000.8,156.8,1.2,3.1,182.4,0.00,20.8,23.2,"05:23:44",1
"16/06/21","05:40",1.0,21.5,94.9,1000.5,158.2,0.8,2.6,179.2,0.00,20.7,23.0,"05:30:08",1
"16/06/21","05:50",1.2,21.5,94.9,999.8,148.1,0.7,1.6,173.8,0.00,20.7,22.9,"05:42:48",1
"16/06/21","06:00",1.0,21.5,95.1,999.8,48.4,0.5,1.1,125.7,0.00,20.7,22.9,"05:50:40",1
"16/06/21","06:10",1.2,21.4,95.0,1000.0,24.0,0.8,1.7,350.5,0.00,20.6,23.0,"06:05:04",1
"16/06/21","06:20",0.8,21.4,95.0,1000.0,110.0,0.6,1.4,128.7,0.00,20.6,22.9,"06:17:04",1
"16/06/21","06:30",0.6,21.3,94.9,999.6,58.1,0.5,1.3,95.6,0.00,20.5,22.9,"06:29:52",1
"16/06/21","06:40",0.8,21.5,95.0,999.8,71.8,0.6,2.0,129.4,0.01,20.7,22.7,"06:31:12",1
"16/06/21","06:50",0.0,21.6,95.0,999.8,28.2,0.6,1.4,335.1,0.02,20.8,23.0,"06:43:44",1
"16/06/21","07:00",0.0,21.7,94.8,1000.0,336.4,1.1,2.4,344.3,0.03,20.9,22.8,"06:58:24",1
"16/06/21","07:10",0.0,21.7,94.9,1000.0,334.7,0.7,2.0,348.1,0.01,20.9,22.9,"07:00:56",1
"16/06/21","07:20",0.0,21.9,94.7,1000.3,337.8,0.6,1.2,338.4,0.04,21.1,22.7,"07:13:36",1
"16/06/21","07:30",0.0,22.2,94.9,1000.5,304.2,0.7,1.1,339.2,0.05,21.4,22.8,"07:22:32",1
"16/06/21","07:40",0.0,22.5,93.9,1000.5,310.5,0.6,1.1,318.8,0.10,21.5,22.8,"07:39:12",1
"16/06/21","07:50",0.0,22.8,93.1,1000.5,318.4,0.7,1.4,341.2,0.05,21.7,23.0,"07:45:28",1
"16/06/21","08:00",0.0,22.9,93.0,1000.3,301.0,0.8,2.6,335.7,0.06,21.7,23.1,"07:52:32",1
"16/06/21","08:10",0.0,23.2,92.0,1000.8,284.1,0.3,1.1,237.2,0.12,21.9,23.2,"08:04:56",1
"16/06/21","08:20",0.0,23.5,90.1,1000.8,131.7,0.2,0.9,102.4,0.08,21.8,23.1,"08:17:44",1
"16/06/21","08:30",0.0,23.5,90.5,1001.0,29.4,0.3,1.0,44.6,0.05,21.9,23.1,"08:21:20",1
"16/06/21","08:40",0.0,23.5,90.0,1001.0,315.6,0.8,1.4,339.7,0.05,21.8,23.1,"08:33:44",1
"16/06/21","08:50",0.0,23.5,90.1,1001.0,313.8,0.8,1.7,347.4,0.06,21.8,23.1,"08:47:04",1
"16/06/21","09:00",0.2,23.4,89.8,1001.0,304.3,0.6,1.0,336.1,0.06,21.7,23.1,"08:56:48",1
"16/06/21","09:10",0.2,23.1,90.0,1001.5,302.7,0.6,1.8,313.8,0.06,21.4,23.2,"09:07:20",1
"16/06/21","09:20",0.0,22.9,90.7,1001.2,297.3,0.3,1.3,290.8,0.05,21.3,23.2,"09:10:48",1
"16/06/21","09:30",0.0,23.3,91.1,1001.2,305.7,0.5,1.3,7.3,0.13,21.8,23.6,"09:23:52",1
"16/06/21","09:40",0.0,24.0,88.5,1001.2,301.2,0.5,2.0,222.4,0.23,22.0,23.3,"09:30:48",1
"16/06/21","09:50",0.0,24.4,84.6,1001.0,340.6,0.6,1.6,353.1,0.26,21.7,23.6,"09:41:12",1
"16/06/21","10:00",0.0,25.7,81.0,1001.0,324.0,0.7,2.1,350.0,0.46,22.2,23.7,"09:56:56",1
"16/06/21","10:10",0.0,25.7,79.7,1001.2,317.5,0.6,1.6,3.0,0.39,22.0,23.9,"10:07:20",1
"16/06/21","10:20",0.0,25.9,80.3,1001.0,346.4,0.8,2.4,354.4,0.39,22.3,24.1,"10:18:56",1
"16/06/21","10:30",0.0,27.1,76.5,1001.0,355.1,0.8,2.5,352.1,0.56,22.7,24.6,"10:24:32",1
"16/06/21","10:40",0.0,26.8,75.1,1000.8,343.3,0.7,2.9,354.8,0.44,22.1,24.6,"10:35:04",1
"16/06/21","10:50",0.0,27.6,75.9,1000.3,280.1,0.5,1.3,11.9,0.53,23.0,24.9,"10:43:44",1
"16/06/21","11:00",0.0,28.1,72.4,1001.0,287.6,0.7,2.4,8.5,0.61,22.7,25.3,"10:50:56",1
"16/06/21","11:10",0.0,28.6,68.6,1001.2,356.1,0.6,1.3,354.8,0.61,22.3,25.5,"11:02:56",1
"16/06/21","11:20",0.0,29.0,68.8,1001.9,14.8,0.5,1.8,334.6,0.62,22.7,25.8,"11:10:08",1
"16/06/21","11:30",0.0,29.1,70.8,1001.7,290.4,0.6,2.7,191.1,0.53,23.3,26.0,"11:28:00",1
"16/06/21","11:40",0.0,29.1,68.2,1001.9,198.1,1.3,3.3,2.1,0.61,22.7,26.3,"11:34:32",1
"16/06/21","11:50",0.0,29.9,69.9,1001.9,204.2,0.7,5.0,224.2,0.64,23.8,26.6,"11:47:44",1
"16/06/21","12:00",0.0,29.8,66.6,1001.5,221.6,1.7,3.9,214.2,0.59,23.0,26.7,"11:51:20",1
"16/06/21","12:10",0.0,29.2,65.1,1001.9,210.9,1.0,3.9,222.7,0.43,22.0,27.1,"12:05:04",1
"16/06/21","12:20",0.0,30.2,63.6,1001.5,240.8,1.0,3.1,245.6,0.58,22.6,27.4,"12:12:56",1
"16/06/21","12:30",0.0,30.6,64.1,1001.7,215.5,1.0,3.4,209.8,0.65,23.1,27.4,"12:20:56",1
"16/06/21","12:40",0.0,31.0,57.9,1001.9,223.0,1.1,4.8,225.2,0.66,21.8,27.7,"12:31:52",1
"16/06/21","12:50",0.0,31.1,59.7,1001.9,135.3,1.0,3.2,228.6,0.60,22.4,27.6,"12:43:28",1
"16/06/21","13:00",0.0,31.0,62.5,1001.2,249.6,1.1,7.8,215.2,0.54,23.0,27.8,"12:52:16",1
"16/06/21","13:10",0.0,31.4,60.3,1001.5,271.5,0.7,3.2,206.3,0.63,22.8,27.6,"13:03:12",1
"16/06/21","13:20",0.0,31.8,56.6,1001.7,343.5,0.6,2.1,225.6,0.65,22.2,27.9,"13:10:02",1
"16/06/21","13:30",0.0,30.9,57.5,1001.9,188.2,0.8,2.2,348.3,0.40,21.6,27.9,"13:25:28",1
"16/06/21","13:40",0.0,30.4,59.3,1001.7,91.6,0.8,1.6,16.8,0.32,21.6,27.7,"13:38:16",1
"16/06/21","13:50",0.0,30.6,61.5,1001.5,74.2,1.2,2.8,160.7,0.44,22.4,27.5,"13:42:08",1
"16/06/21","14:00",0.0,31.0,62.1,1001.2,72.2,1.3,2.8,57.7,0.41,22.9,27.7,"13:55:04",1
"16/06/21","14:10",0.0,30.0,62.1,1000.8,103.5,1.1,2.6,135.3,0.25,22.0,27.8,"14:01:12",1
"16/06/21","14:20",0.0,29.6,62.5,1000.8,321.0,0.3,2.5,93.6,0.15,21.7,27.7,"14:10:16",1
"16/06/21","14:30",0.0,29.5,65.6,1000.8,352.9,0.8,3.3,349.7,0.08,22.4,27.6,"14:28:16",1
"16/06/21","14:40",0.0,28.9,65.3,1000.3,357.8,2.0,5.2,347.5,0.06,21.8,27.6,"14:39:44",1
"16/06/21","14:50",0.0,30.1,60.6,1000.0,29.0,1.5,2.8,35.8,0.40,21.7,27.4,"14:43:44",1
"16/06/21","15:00",0.0,30.3,60.1,1000.0,23.3,1.2,2.9,352.5,0.35,21.7,27.6,"14:53:44",1
"16/06/21","15:10",0.0,31.1,59.7,1000.3,17.6,1.5,3.1,4.2,0.39,22.4,27.4,"15:04:48",1
"16/06/21","15:20",0.0,31.1,61.0,1000.5,212.9,1.2,3.2,214.0,0.42,22.7,27.4,"15:17:12",1
"16/06/21","15:30",0.0,30.0,64.5,1000.3,227.0,1.8,4.5,225.9,0.26,22.6,27.5,"15:20:24",1
"16/06/21","15:40",0.0,30.2,62.8,1000.8,233.9,0.6,1.7,198.2,0.27,22.4,27.6,"15:32:00",1
"16/06/21","15:50",0.0,29.7,64.9,1000.0,257.6,1.0,3.1,226.8,0.15,22.4,27.6,"15:42:24",1
"16/06/21","16:00",0.0,29.5,65.9,1000.3,257.9,0.3,1.3,344.7,0.13,22.5,27.6,"15:59:36",1
"16/06/21","16:10",0.0,29.4,65.0,1000.0,225.9,0.3,2.0,218.8,0.09,22.2,27.7,"16:03:28",1
"16/06/21","16:20",0.0,29.2,65.2,999.8,226.1,0.8,2.4,218.2,0.04,22.0,27.7,"16:19:12",1
"16/06/21","16:30",0.0,28.8,66.6,999.3,266.4,0.3,2.2,215.6,0.02,22.0,27.5,"16:20:48",1
"16/06/21","16:40",0.0,28.6,69.2,999.3,293.1,0.2,1.1,194.4,0.02,22.4,27.5,"16:31:12",1
"16/06/21","16:50",0.0,28.5,68.5,999.3,273.0,0.3,1.7,222.5,0.04,22.2,27.6,"16:41:20",1
"16/06/21","17:00",0.0,28.6,68.4,999.1,240.8,0.3,1.9,229.5,0.03,22.3,27.3,"16:59:04",1
"16/06/21","17:10",0.0,28.6,70.1,998.9,298.7,0.3,1.8,227.3,0.04,22.7,27.5,"17:00:24",1
"16/06/21","17:20",0.0,28.4,70.3,998.6,298.0,0.5,1.7,229.7,0.02,22.5,27.3,"17:13:20",1
"16/06/21","17:30",0.0,28.1,70.7,998.9,315.7,0.5,1.7,3.9,0.02,22.3,27.2,"17:28:16",1
"16/06/21","17:40",0.0,28.1,71.5,999.1,314.4,0.7,2.5,341.2,0.03,22.5,27.1,"17:31:36",1
"16/06/21","17:50",0.0,27.8,72.3,999.6,321.3,0.7,1.8,355.4,0.02,22.4,27.2,"17:48:32",1
"16/06/21","18:00",0.0,27.7,74.2,999.6,334.3,1.1,2.2,351.2,0.02,22.7,26.9,"17:58:00",1
"16/06/21","18:10",0.0,27.5,74.0,999.8,331.7,1.3,3.1,4.8,0.03,22.5,26.8,"18:05:52",1
"16/06/21","18:20",0.0,27.4,74.8,1000.0,311.0,0.7,1.8,346.9,0.01,22.6,26.8,"18:11:52",1
"16/06/21","18:30",0.0,27.3,74.6,1000.3,306.1,0.7,1.4,345.7,0.00,22.4,26.7,"18:27:44",1
"16/06/21","18:40",0.0,27.0,75.1,1000.3,318.6,1.0,1.9,350.2,0.00,22.3,26.6,"18:38:32",1
"16/06/21","18:50",0.0,26.6,76.7,1000.3,299.8,0.5,1.6,334.1,0.00,22.2,26.5,"18:41:04",1
"16/06/21","19:00",0.0,26.2,78.7,1000.8,319.7,0.6,1.6,338.7,0.00,22.2,26.5,"18:50:24",1
"16/06/21","19:10",0.0,25.9,80.2,1001.2,316.4,0.6,1.4,344.4,0.00,22.3,26.5,"19:01:04",1
"16/06/21","19:20",0.4,25.5,81.7,1001.5,289.4,0.5,1.3,316.6,0.00,22.2,26.5,"19:19:20",1
"16/06/21","19:30",0.4,24.8,84.1,1001.5,322.8,0.6,1.6,342.9,0.00,22.0,26.2,"19:28:40",1
"16/06/21","19:40",0.2,24.3,86.2,1001.5,334.5,0.5,1.6,344.5,0.00,21.9,26.2,"19:31:52",1
"16/06/21","19:50",0.0,24.1,87.3,1001.9,339.5,0.7,1.6,328.9,0.00,21.9,25.9,"19:45:36",1
"16/06/21","20:00",0.0,24.1,87.8,1001.9,346.0,1.0,2.4,351.6,0.00,22.0,25.9,"19:53:20",1
"16/06/21","20:10",0.0,24.1,88.1,1002.2,321.3,0.7,2.4,353.9,0.00,22.0,25.9,"20:05:28",1
"16/06/21","20:20",0.0,24.1,88.4,1001.9,319.1,0.6,1.7,352.4,0.00,22.1,26.0,"20:12:56",1
"16/06/21","20:30",0.0,24.0,89.0,1002.2,325.9,0.6,1.2,340.4,0.00,22.1,25.7,"20:25:12",1
"16/06/21","20:40",0.0,24.1,89.6,1002.4,347.5,0.7,1.9,341.8,0.00,22.3,25.6,"20:35:36",1
"16/06/21","20:50",0.0,24.0,89.8,1002.6,286.1,0.2,0.6,306.0,0.00,22.3,25.6,"20:44:32",1
"16/06/21","21:00",0.0,23.8,90.1,1002.6,294.6,0.3,0.9,334.7,0.00,22.1,25.5,"20:59:44",1
"16/06/21","21:10",0.0,23.7,90.4,1003.1,308.4,0.5,1.3,344.3,0.00,22.1,25.3,"21:09:36",1
"16/06/21","21:20",0.2,23.6,90.6,1003.1,331.3,0.8,1.7,354.2,0.00,22.0,25.4,"21:10:02",1
"16/06/21","21:30",0.0,23.4,90.5,1003.4,309.0,0.7,2.0,5.9,0.00,21.8,25.2,"21:21:20",1
"16/06/21","21:40",0.0,23.2,90.2,1003.4,328.1,0.8,2.8,340.3,0.00,21.5,25.4,"21:39:20",1
"16/06/21","21:50",0.2,23.0,89.8,1003.4,313.4,1.0,2.7,346.1,0.00,21.3,25.2,"21:42:32",1
"16/06/21","22:00",0.0,22.8,90.3,1003.1,309.5,1.0,2.2,346.8,0.00,21.2,25.2,"21:53:20",1
"16/06/21","22:10",0.0,22.7,90.6,1003.1,281.3,0.8,1.6,337.1,0.00,21.1,24.8,"22:00:16",1
"16/06/21","22:20",0.0,22.6,90.9,1002.9,258.3,0.8,1.4,247.0,0.00,21.1,25.0,"22:10:32",1
"16/06/21","22:30",0.0,22.5,90.9,1003.4,264.4,0.8,1.7,239.1,0.00,21.0,24.9,"22:20:02",1
"16/06/21","22:40",0.0,22.5,90.9,1003.6,281.9,0.6,1.1,243.9,0.00,21.0,24.9,"22:30:16",1
"16/06/21","22:50",0.0,22.6,91.1,1003.4,302.8,0.8,2.0,324.8,0.00,21.1,24.7,"22:46:16",1
"16/06/21","23:00",0.0,22.7,90.8,1003.8,322.4,1.1,2.1,337.3,0.00,21.2,24.7,"22:51:44",1
"16/06/21","23:10",0.0,22.7,90.8,1003.4,321.0,1.5,2.7,337.7,0.00,21.2,24.6,"23:03:12",1
"16/06/21","23:20",0.0,22.6,90.7,1003.6,320.7,1.5,2.2,351.0,0.00,21.0,24.6,"23:19:36",1
"16/06/21","23:30",0.0,22.5,90.7,1003.8,332.0,1.5,2.5,355.6,0.00,20.9,24.7,"23:25:44",1
"16/06/21","23:40",0.0,22.6,90.8,1003.6,336.4,1.5,3.3,351.1,0.00,21.1,24.7,"23:37:20",1
"16/06/21","23:50",0.0,22.6,90.8,1003.4,314.8,1.1,2.0,347.8,0.00,21.1,24.5,"23:40:56",1
"16/06/21","24:00",0.0,22.5,91.0,1003.1,297.0,0.8,1.6,332.3,0.00,21.0,24.5,"23:51:36",1
